Regional Weather Roundup
Issued by NWS

Home | Current Version | Previous Version | Graphics & Text | Print | Product List | Glossary On
Versions: 1 2 3 4 5 6 7 8 9 10 11 12 13 14 15 16 17 18 19 20 21 22 23 24 25 26 27 28
000
ASUS45 KBOI 240910
RWRID

IDAHO REGIONAL WEATHER ROUNDUP
NATIONAL WEATHER SERVICE BOISE ID
200 AM MST SAT FEB 24 2018

NOTE: "FAIR" INDICATES FEW OR NO CLOUDS BELOW 12000 FEET
WITH NO SIGNIFICANT WEATHER AND/OR OBSTRUCTIONS TO VISIBILITY

IDZ012-014-241000-
SOUTHWEST IDAHO


CITY           SKY/WX    TMP DP  RH WIND       PRES   REMARKS
BOISE          CLOUDY    25  16  68 E8        30.19F WCI  16
CALDWELL       CLOUDY    27  18  69 E5        30.20F WCI  22
MOUNTAIN HOME  CLOUDY    18  18  99 E3        30.19F
$$

IDZ016-017-241000-
SOUTHCENTRAL IDAHO


CITY           SKY/WX    TMP DP  RH WIND       PRES   REMARKS
BURLEY         CLOUDY    20   9  62 SW14      30.11F WCI   7
JEROME         CLOUDY    21  10  62 SW9       30.14F WCI  11
TWIN FALLS     CLOUDY    21  11  65 SW13      30.14F WCI   9
$$

IDZ019>023-241000-
SOUTHEAST IDAHO


CITY           SKY/WX    TMP DP  RH WIND       PRES   REMARKS
IDAHO FALLS    CLOUDY    17  10  74 SW16G26   30.04S WCI   2
POCATELLO      CLOUDY    21  11  65 SW23      30.09S WCI   5
REXBURG        FLURRIES  16  10  77 SW17G25   30.01F WCI   0
$$

IDZ006-010-011-018-031-032-241000-
CENTRAL IDAHO MOUNTAINS


CITY           SKY/WX    TMP DP  RH WIND       PRES   REMARKS
MCCALL         FLURRIES  14  11  87 CALM      30.02F
HAILEY           N/A    N/A N/A N/A MISG        N/A
STANLEY          N/A     11   5  77 CALM      29.98F
SALMON         CLOUDY    18  11  74 W3        30.02F
CHALLIS        CLOUDY    22   3  44 S12       29.98F WCI  10
$$

IDZ002-004-006-007-026-241000-
NORTHERN IDAHO


CITY           SKY/WX    TMP DP  RH WIND       PRES   REMARKS
LEWISTON       CLOUDY    30  23  75 NE6       30.09F WCI  24
LOWELL           N/A     27  25  92 CALM      30.17F
COEUR D`ALENE  FLURRIES  23  20  88 S9        30.03F WCI  13
MULLAN PASS    LGT SNOW   8   5  87 VRB3      29.80F FOG
$$




USA.gov is the U.S. government's official web portal to all federal, state and local government web resources and services.